Wind_Speed
13 11 11 10 8 7 8 9 8 8 8 6 4 3 4 5 5 5 5 5 6 5 6 6 7 8 9 9 10 10 11 13 16 22 24 26 30 29 30 28 30 30 27
16 13 10 8 7 7 7 7 7 7 6 7 7 6 4 5 4 4 4 4 4 4 4 5 6 7 9 9 11 12 13 15 18 21 25 27 28 28 29 32 32 31 31
11 9 9 7 6 6 5 6 5 4 4 4 3 4 6 5 4 3 3 3 2 2 4 5 7 8 10 11 13 13 15 17 20 23 26 26 27 28 28 30 31 30 31
6 7 7 4 2 3 2 4 6 6 7 7 7 6 5 4 4 3 0 2 3 5 5 6 7 8 10 12 13 14 16 19 21 24 26 27 27 27 26 29 31 31 34
7 6 7 9 7 5 5 6 7 8 7 7 7 6 5 6 6 0 4 5 5 7 8 9 9 11 16 11 11 15 16 20 23 25 26 28 28 28 28 29 30 32 37
9 10 11 12 12 11 8 6 8 11 11 10 9 8 7 7 8 8 8 8 9 11 12 12 13 15 5 11 16 12 15 22 24 26 28 28 29 27 31 31 33 32 26
10 5 8 5 6 7 9 9 11 11 10 11 11 10 11 11 12 14 13 13 13 14 15 17 15 15 16 15 15 18 22 23 25 28 30 28 29 29 33 34 33 34 36
9 9 10 9 8 9 9 10 11 11 12 12 13 12 12 13 15 16 16 15 16 17 18 20 17 17 18 19 20 22 25 26 27 28 30 28 30 34 31 36 35 37 38
9 8 9 10 10 10 11 11 11 12 13 14 14 13 14 15 15 16 15 14 18 20 20 19 19 20 21 16 13 23 28 29 28 28 28 35 35 28 32 34 31 31 29
10 6 5 6 8 8 10 10 10 12 13 14 15 15 15 17 16 17 19 15 18 21 20 17 18 13 7 12 16 23 30 30 28 32 32 29 26 29 32 28 29 28 30
6 5 6 8 8 9 10 12 13 14 15 15 17 16 17 16 15 13 11 13 18 21 18 19 18 13 15 22 28 23 23 27 29 30 27 28 25 28 28 29 29 31 34
6 6 7 7 9 10 12 12 14 15 16 17 18 20 19 15 11 9 10 17 14 15 19 20 19 23 28 30 28 26 27 28 28 29 26 26 25 27 31 32 33 37 39
8 8 8 10 12 14 15 15 17 17 18 18 19 19 18 14 11 13 17 12 15 14 15 18 20 23 27 30 26 22 28 24 27 27 28 28 27 30 34 30 36 37 40
9 11 12 14 17 17 16 17 17 16 14 10 7 11 14 9 9 10 9 13 12 15 15 16 24 28 28 31 25 23 21 24 25 26 27 27 27 28 29 30 34 39 37
14 16 17 17 18 17 16 13 11 7 6 8 10 10 8 10 6 8 9 9 11 14 20 22 22 21 19 20 20 21 22 23 23 24 26 26 26 28 28 29 33 35 32
17 18 19 20 18 10 11 9 5 6 5 5 7 6 5 7 7 8 10 13 15 17 17 19 19 19 19 20 21 22 23 23 22 25 26 25 26 24 25 30 30 31 31
15 14 16 14 12 11 9 9 8 6 7 7 6 4 2 9 9 12 12 14 19 20 16 19 19 18 19 20 21 22 23 22 22 24 25 26 26 25 27 27 31 31 32
11 11 12 14 11 8 10 9 8 7 10 11 13 11 9 7 8 11 11 13 17 9 14 16 17 18 19 20 21 22 23 22 22 24 26 25 26 24 24 26 29 30 31
9 13 7 10 11 7 7 8 8 9 9 6 6 13 14 11 9 11 10 12 15 15 15 16 17 18 19 20 20 22 22 21 22 24 24 25 25 25 23 26 29 31 32
11 7 7 10 9 8 10 8 13 7 8 9 8 7 10 10 12 12 16 16 15 16 17 18 19 20 19 20 21 21 21 21 22 23 23 24 25 25 25 27 27 29 29
10 6 5 10 13 8 8 16 9 8 10 9 8 4 7 8 14 14 14 13 14 16 17 18 20 20 21 19 20 21 21 21 22 22 22 24 26 25 25 25 26 27 28
10 10 9 12 14 13 15 12 12 12 13 11 10 7 10 9 11 14 13 14 15 16 17 18 20 21 21 19 19 20 21 21 21 20 21 25 26 25 25 25 25 25 25
13 13 14 14 14 12 10 15 15 17 16 15 14 13 13 14 13 13 13 16 18 18 19 21 21 22 20 19 19 19 20 20 18 19 24 25 25 25 24 24 24 23 23
15 16 15 16 17 18 17 17 18 21 21 18 16 17 13 15 16 16 16 15 15 15 16 21 23 22 20 19 19 19 17 13 15 19 22 22 23 24 23 22 21 22 22
16 18 18 18 20 18 20 23 21 24 24 21 21 18 13 15 15 15 13 11 14 13 18 20 22 22 20 19 20 19 12 18 24 26 18 21 22 22 20 19 19 21 21
17 19 21 21 20 23 24 23 19 23 22 20 18 18 13 13 16 13 11 14 16 16 19 21 21 19 20 20 18 11 17 22 19 22 26 20 19 19 18 19 19 18 18
Wind_Direction
132 120 122 112 109 113 123 125 126 131 124 109 95 93 95 92 88 98 96 90 80 58 43 30 20 9 0 356 343 338 327 317 309 305 308 311 314 313 312 314 314 310 307
89 86 93 98 92 89 105 115 120 129 139 138 134 145 133 121 117 118 106 96 86 72 38 26 10 1 354 349 333 334 321 318 313 306 308 310 308 310 312 313 313 309 306
100 117 104 88 75 75 95 104 99 87 82 113 157 175 158 155 153 155 126 105 71 24 15 357 354 351 345 329 328 328 323 319 314 307 306 305 307 306 311 310 307 308 308
98 105 103 95 101 103 118 140 159 173 181 182 181 189 189 194 193 189 179 358 360 344 330 330 316 305 323 321 324 325 321 320 314 309 307 307 309 311 312 317 311 309 306
158 181 197 181 188 181 174 173 199 199 201 198 199 207 222 236 243 177 315 316 307 300 299 295 301 301 293 275 302 313 312 312 312 308 307 311 310 317 309 311 305 307 300
197 210 203 202 196 191 176 202 205 216 217 224 231 227 235 251 240 265 278 284 294 289 290 293 298 298 309 306 302 284 295 301 302 303 303 306 299 312 311 311 307 303 299
187 220 173 179 227 227 219 218 220 227 224 235 245 246 246 251 258 268 276 272 276 283 286 282 288 296 312 303 305 305 311 305 295 290 290 295 308 311 310 307 304 297 291
185 199 201 201 218 222 229 232 228 234 240 243 246 247 251 254 253 260 275 271 274 278 275 274 284 290 291 293 292 297 308 307 301 298 296 297 300 303 299 301 295 291 289
198 198 207 211 204 212 222 227 231 238 237 236 245 254 256 260 260 261 262 271 279 285 283 277 279 285 291 290 295 301 306 304 302 300 299 304 300 291 309 302 290 290 288
199 204 213 216 222 227 233 232 237 236 242 250 252 254 259 262 265 265 263 273 281 289 287 288 296 276 265 313 318 311 305 304 307 306 302 297 302 305 304 298 298 296 295
207 202 204 213 222 237 248 246 243 243 251 248 258 264 268 269 273 271 253 269 285 285 288 296 293 296 321 323 320 309 297 295 300 300 299 298 308 310 303 305 300 301 296
207 209 209 219 237 246 243 251 255 258 262 263 266 266 269 270 265 251 278 299 277 278 283 288 293 296 306 308 299 289 288 288 293 285 292 304 316 310 308 305 305 307 301
210 216 235 246 251 253 260 268 271 272 265 270 269 272 274 280 274 284 299 270 283 268 279 289 293 296 295 297 289 289 293 286 293 309 311 309 314 308 306 306 313 312 307
242 254 258 263 266 273 276 275 278 289 305 309 3 22 354 335 319 306 289 271 264 267 287 301 304 300 290 283 281 295 306 308 305 303 307 315 317 313 309 319 317 317 312
250 254 259 269 272 268 273 274 277 274 287 300 293 294 268 273 279 282 285 299 302 301 310 305 301 294 302 309 310 312 309 308 312 311 315 315 313 317 314 322 319 317 313
254 263 261 259 262 271 275 270 257 278 289 295 284 262 267 265 281 285 284 289 291 295 303 302 293 305 313 316 315 313 312 313 319 318 310 317 317 316 326 323 324 320 316
260 281 287 298 296 293 289 288 277 247 252 237 232 221 223 253 274 283 285 291 293 288 275 287 300 314 316 315 314 313 312 318 319 313 321 314 318 323 328 325 325 322 321
272 272 277 267 248 258 270 280 260 248 249 222 217 209 218 235 267 283 286 292 291 304 249 290 310 309 311 313 313 315 312 318 317 322 314 319 319 326 330 330 326 324 322
279 270 291 300 299 306 271 238 262 253 266 305 191 200 215 229 265 273 257 256 284 306 304 304 306 310 312 312 314 312 310 315 321 315 318 322 322 329 333 332 325 324 324
267 240 283 276 270 250 242 240 248 227 251 263 274 281 178 206 281 276 236 246 283 302 306 309 311 311 311 313 312 311 314 320 318 318 321 323 325 330 336 333 327 326 326
274 256 257 275 268 267 258 256 249 251 263 268 275 249 203 284 296 281 278 288 298 302 305 308 308 312 310 313 315 316 318 316 316 320 322 325 327 328 337 329 325 325 325
262 261 261 249 255 231 244 259 251 249 255 261 262 209 226 250 269 268 290 300 301 304 304 306 305 307 309 315 316 314 312 311 315 321 327 325 322 329 329 326 323 325 328
259 263 265 259 260 258 263 253 264 264 258 258 257 259 208 242 267 291 294 296 300 301 302 305 302 301 306 314 311 306 307 312 324 326 323 320 321 322 323 321 322 324 330
265 269 266 269 268 257 256 251 247 249 259 260 267 268 273 280 275 276 278 281 286 286 291 295 296 299 306 309 305 303 315 317 329 322 319 315 315 317 318 317 319 322 326
258 267 263 265 268 269 253 253 252 260 265 251 242 245 247 261 267 270 275 281 292 288 290 290 293 301 307 306 303 303 300 312 315 320 323 314 310 311 312 315 319 322 322
260 266 272 275 274 271 272 268 247 266 273 259 258 254 241 262 265 269 284 288 293 287 289 295 298 305 303 302 303 299 317 317 318 318 322 312 306 306 309 313 315 317 319
Height
828 832 836 839 842 843 844 845 847 848 850 852 855 858 857 856 856 857 856 856 855 856 856 855 855 854 853 850 849 845 843 842 839 833 831 826 822 818 813 810 808 804 800
830 835 840 843 845 846 847 848 848 850 851 851 851 857 859 857 857 858 856 856 855 855 855 854 855 854 853 850 852 847 844 842 839 835 830 825 821 814 809 805 801 799 795
835 839 842 844 847 848 849 849 850 853 853 853 856 857 855 857 858 859 856 855 855 856 854 854 852 851 851 853 850 846 843 841 838 833 827 822 817 812 805 802 798 794 789
840 841 844 846 848 849 850 851 852 855 856 857 857 859 859 859 857 856 855 854 852 853 853 851 852 852 851 850 848 844 842 841 836 831 824 819 814 809 804 800 792 790 784
841 843 844 846 847 849 850 851 854 856 856 856 855 855 856 857 857 854 855 853 851 851 853 853 849 849 845 846 847 843 842 839 835 829 823 815 811 806 803 797 791 788 779
840 841 842 844 847 848 849 852 853 857 854 854 856 852 852 853 852 853 852 853 851 850 848 849 847 845 842 841 840 840 840 836 832 826 820 815 809 805 801 796 792 785 772
839 839 839 842 846 847 848 850 851 854 851 852 852 851 849 849 849 852 848 848 849 846 845 843 841 840 839 837 837 837 834 830 827 823 816 811 804 804 800 793 788 782 772
833 836 836 839 842 844 846 846 848 849 849 847 848 846 845 845 845 847 846 844 844 842 840 838 836 835 834 833 832 830 827 824 821 817 812 805 802 798 797 790 781 772 764
829 832 833 835 836 838 840 842 844 845 844 844 843 841 841 840 840 841 840 840 838 835 832 831 830 829 827 825 826 823 820 818 814 809 804 799 795 790 788 781 773 766 753
826 828 830 832 834 835 838 839 839 839 839 838 836 835 835 835 835 836 836 834 831 830 828 827 825 823 822 822 822 819 814 811 806 802 797 791 787 783 779 775 768 760 750
825 827 829 831 832 834 835 835 835 834 833 832 831 831 831 831 830 830 830 829 828 826 823 822 821 816 818 816 816 814 811 806 801 796 788 782 778 776 772 767 761 755 744
826 828 828 829 830 830 831 831 831 830 829 828 828 827 827 826 825 824 825 825 825 825 822 819 817 814 812 812 810 806 802 799 795 786 778 773 772 769 764 758 752 745 737
825 826 826 827 827 827 827 826 826 825 824 824 823 822 821 821 822 821 820 820 821 820 818 815 813 811 808 803 799 797 795 792 785 779 774 769 767 764 757 750 743 735 724
824 824 824 824 824 823 823 822 821 820 820 820 820 819 819 817 817 819 818 817 816 815 814 811 809 805 799 795 794 790 788 785 781 776 770 765 762 758 752 746 738 728 717
821 820 819 817 817 817 817 817 817 817 818 817 816 815 815 816 816 815 815 815 814 814 812 809 803 797 792 790 788 787 784 780 776 772 767 763 758 753 747 742 735 725 714
815 814 812 812 810 812 813 812 813 814 814 814 814 814 814 813 813 814 814 813 812 811 809 805 798 792 790 788 786 783 780 776 773 770 765 759 754 748 742 736 731 723 712
808 809 808 809 810 810 810 810 810 811 811 811 811 811 811 812 812 812 811 810 808 806 805 798 793 790 789 787 785 781 777 773 772 767 762 758 751 745 740 734 728 720 709
807 808 807 804 804 805 805 806 807 805 804 802 805 806 806 808 809 808 808 806 802 796 797 792 790 789 787 785 782 779 775 771 768 765 760 754 748 742 737 733 727 719 709
803 801 801 800 799 800 801 802 801 800 799 798 798 801 804 805 804 804 804 803 799 794 791 789 787 785 783 781 779 776 772 768 766 762 757 752 746 741 737 733 726 718 709
799 798 800 799 796 797 796 795 794 793 794 795 795 796 798 801 800 797 796 796 792 790 788 786 784 782 780 778 775 772 768 766 763 759 755 751 745 741 737 733 727 718 709
796 795 798 799 794 793 793 790 787 789 790 790 791 792 794 798 797 794 790 789 788 787 786 784 781 779 776 773 772 770 767 765 761 757 754 750 745 740 738 734 728 720 712
792 792 793 791 789 787 786 786 785 786 786 786 787 788 790 793 791 788 786 785 784 784 783 782 779 776 773 771 770 769 766 762 758 756 753 750 745 741 738 733 727 720 714
790 789 787 785 785 784 785 784 784 784 783 782 782 782 784 784 783 784 784 785 784 783 782 780 777 773 770 769 768 767 763 760 757 756 754 750 745 742 738 732 727 720 714
789 786 784 782 780 779 778 778 778 778 777 775 776 778 778 780 780 780 781 781 780 781 779 777 774 770 767 766 765 763 760 757 757 756 753 749 744 740 736 732 726 721 716
785 782 779 777 775 774 774 772 772 772 770 768 769 770 771 774 774 775 775 776 775 775 774 772 769 765 763 763 762 760 755 755 754 752 750 746 742 737 734 730 726 721 716
778 777 774 771 770 768 766 764 764 767 766 764 765 767 765 768 769 769 771 772 772 770 768 765 763 761 760 759 757 755 754 752 750 748 744 742 738 734 731 728 725 721 716